Content
SEND FEEDBACK

Daily
Averages
Monthly
Summary
Taiwan

HSINCHU, TAIWAN


Home > Asia > Taiwan
Elevation: 25 feet     Latitude: 24 49N     Longitude: 120 56E

WEATHER
 
SELECT A DAY
Number of Records: 238,890;   Date Range: 7/1/96 - 7/23/14
 
SHARE

PRINT THIS DATA

[ ← Previous Day ]
WEATHER ALMANAC - JANUARY 31, 2013
[ Next Day → ]
[ °C ]   °F
Weather ElementAverageHighLow
Temperature60.6 °F69.8 °F (10:00 am)53.6 °F (4:00 am)
Dewpoint52.8 °F59 °F (3:00 pm)46.4 °F (7:00 am)
Humidity76.9 %94 % (6:00 pm)49 % (10:00 am)
Barometer30.18 in30.24 in (10:30 am)30.15 in (1:00 pm)
Wind Speed4.9 mph9.2 mph (12:00 pm)
Wind Gust24.2 mph (8:30 am)
Weather ElementAverage
Visibility4.2 mi
Wind DirectionSSW (215.1 °)

Weather ElementTotal
Precipitation---
Heating Degree Days3.3 (Base 65)
Growing Degree Days11.7 (Base 50)
Averaged from 47 records on January 31, 2013
WEATHER CONDITIONS BREAKOUT
WIND DIRECTION BREAKOUT
WEATHER BY HOUR - JANUARY 31, 2013
[ °C ]   °F
Local TimeTemperatureDewpointHumidityBarometerVisibilityWind DirectionWind SpeedGust SpeedPrecipitationEventsConditions
12:30 AM62.6 °F48.2 °F59 %30.18 in6.2 miSE (130°)4.6 mphPartly Cloudy
1:00 AM55.4 °F48.2 °F77 %30.18 in6.2 miVariable1.2 mphPartly Cloudy
1:30 AM57.2 °F50.0 °F77 %30.18 in6.2 miVariable2.3 mphPartly Cloudy
2:00 AM55.4 °F48.2 °F77 %30.18 in5.6 miWest (280°)3.5 mphPartly Cloudy
2:30 AM55.4 °F48.2 °F77 %30.18 in4.3 miWSW (240°)3.5 mphPartly Cloudy
3:00 AM55.4 °F50.0 °F82 %30.18 in4.3 miSW (230°)3.5 mphPartly Cloudy
3:30 AM55.4 °F48.2 °F77 %30.18 in4.3 miSSW (210°)4.6 mphPartly Cloudy
4:00 AM53.6 °F48.2 °F82 %30.18 in4.3 miSSW (200°)5.8 mphPartly Cloudy
4:30 AM53.6 °F48.2 °F82 %30.18 in3.7 miSSW (200°)4.6 mphPartly Cloudy
5:00 AM55.4 °F50.0 °F82 %30.18 in3.7 miSouth (190°)5.8 mphPartly Cloudy
5:30 AM53.6 °F50.0 °F88 %30.18 in3.7 miSSW (210°)4.6 mphPartly Cloudy
6:00 AM55.4 °F50.0 °F82 %30.18 in4.3 miSouth (170°)8.1 mphPartly Cloudy
6:30 AM55.4 °F48.2 °F77 %30.21 in6.2 miVariable3.5 mphPartly Cloudy
7:00 AM53.6 °F46.4 °F77 %30.21 in6.2 miSouth (170°)4.6 mphPartly Cloudy
7:30 AM57.2 °F46.4 °F67 %30.21 in6.2 miSSW (200°)4.6 mphPartly Cloudy
8:00 AM59.0 °F48.2 °F67 %30.21 in6.2 miSouth (190°)5.8 mph18.4 mphPartly Cloudy
8:30 AM62.6 °F50.0 °F63 %30.21 in6.2 miSSE (160°)4.6 mph24.2 mphPartly Cloudy
9:00 AM64.4 °F50.0 °F59 %30.21 in6.2 miSSE (160°)5.8 mphScattered Clouds
9:30 AM68.0 °F50.0 °F52 %30.21 in6.2 miWNW (300°)3.5 mphScattered Clouds
10:00 AM69.8 °F50.0 °F49 %30.21 in6.2 miNNW (330°)5.8 mphMostly Cloudy
10:30 AM66.2 °F53.6 °F64 %30.24 in6.2 miNW (320°)8.1 mphMostly Cloudy
11:00 AM66.2 °F53.6 °F64 %30.21 in6.2 miWNW (300°)5.8 mphMostly Cloudy
11:30 AM68.0 °F53.6 °F60 %30.21 in5.6 miNW (310°)8.1 mphMostly Cloudy
12:00 PM66.2 °F51.8 °F60 %30.18 in5.6 miWNW (300°)9.2 mphScattered Clouds
12:30 PM68.0 °F53.6 °F60 %30.18 in6.2 miNW (320°)6.9 mphScattered Clouds
1:00 PM68.0 °F53.6 °F60 %30.15 in6.2 miNNW (340°)5.8 mphPartly Cloudy
1:30 PM68.0 °F53.6 °F60 %30.15 in6.2 miNW (320°)6.9 mphPartly Cloudy
2:00 PM68.0 °F53.6 °F60 %30.15 in6.2 miNW (320°)8.1 mphScattered Clouds
2:30 PM68.0 °F55.4 °F64 %30.15 in6.2 miNNW (330°)6.9 mphScattered Clouds
3:00 PM66.2 °F59.0 °F78 %30.15 in5.6 miNNW (330°)6.9 mphScattered Clouds
3:30 PM66.2 °F59.0 °F78 %30.15 in3.7 miNW (320°)6.9 mphPartly Cloudy
4:00 PM66.2 °F59.0 °F78 %30.15 in3.7 miNNW (340°)6.9 mphPartly Cloudy
4:30 PM64.4 °F59.0 °F83 %30.15 in3.7 miNW (310°)5.8 mphScattered Clouds
5:00 PM62.6 °F59.0 °F88 %30.15 in2.2 miNW (320°)5.8 mphScattered Clouds
5:30 PM60.8 °F57.2 °F88 %30.15 inWest (280°)4.6 mphScattered Clouds
6:00 PM59.0 °F57.2 °F94 %30.15 in1.4 miWest (280°)3.5 mphScattered Clouds
6:30 PM59.0 °F57.2 °F94 %30.15 in1.4 miNW (320°)1.2 mphScattered Clouds
7:00 PM57.2 °F55.4 °F94 %30.15 in1.4 miNW (320°)2.3 mphScattered Clouds
7:30 PM59.0 °F55.4 °F88 %30.15 in1.1 miWNW (290°)3.5 mphScattered Clouds
8:00 PM57.2 °F55.4 °F94 %30.18 in1.0 miWNW (300°)3.5 mphScattered Clouds
8:30 PM57.2 °F55.4 °F94 %30.18 in0.7 miWest (270°)4.6 mphMostly Cloudy
9:00 PM55.4 °F53.6 °F94 %30.18 in1.1 miCalmScattered Clouds
9:30 PM57.2 °F55.4 °F94 %30.18 in1.1 miVariable3.5 mphPartly Cloudy
10:00 PM59.0 °F57.2 °F94 %30.18 in1.4 miVariable2.3 mphPartly Cloudy
10:30 PM59.0 °F57.2 °F94 %30.18 in1.4 miVariable3.5 mphPartly Cloudy
11:00 PM59.0 °F57.2 °F94 %30.15 in1.4 miVariable5.8 mphPartly Cloudy
11:30 PM59.0 °F55.4 °F88 %30.15 in1.4 miVariable2.3 mphPartly Cloudy
Hourly data recorded from RCTP, located miles away from Hsinchu, Taiwan







STORIES FROM OUR PARTNERS